Location: Sunnyvale
(37.3814°N, 122.0645°W)
Time: 18:30:16
(UTC-08:00)

BlueWalker 3 - Pass Details

Date: 25 December 2025
Orbit: 452 x 463 km, 53.2° (Epoch: 13 January)

Event Time Altitude Azimuth Distance (km) Brightness Sun altitude
Exits shadow 06:21:41 14° 323° (NW) 1,375 3.6 -11.5°
Maximum altitude 06:22:19 14° 335° (NNW) 1,350 3.7 -11.4°
Drops below altitude 10° 06:24:21 10° 9° (N) 1,595 4.4 -11.0°
Sets 06:27:18 0° 36° (NE) 2,473 5.6 -10.4°
